Terminal Aerodrome Forecast
Issued by NWS Portland, OR

Home | Current Version | Previous Version | Text Only | Print | Product List | Glossary On
Versions: 1 2 3 4 5 6 7 8 9 10 11 12 13 14 15 16 17 18 19 20 21 22 23 24 25 26 27 28 29 30 31
519
FTUS46 KPQR 101140
TAFHIO
TAF
KHIO 101140Z 1012/1112 VRB03KT P6SM BKN150 BKN250
     FM101600 18005KT P6SM SCT040 OVC080
     FM110200 VRB03KT P6SM OVC050=

USA.gov is the U.S. government's official web portal to all federal, state and local government web resources and services.